User: anonymous   Login
Location: Bessat
(45.8735°N, 1.9924°E)
Time: 02:06:45
(UTC+00:00)
Language:

Cosmos 1777 Rocket - Orbit

View from above orbital plane
View from above orbital plane
View from above satellite
View from above satellite

Ground track
Ground track

The orbit data is extracted from the following two-line orbital elements,

1 16953U 86070B   21207.58102421  .00000072  00000-0  33110-4 0  9991
2 16953  74.0119  31.6248 0013137 255.7008 104.2687 14.37429327827393
Epoch (UTC): 26 July 2021 13:56:40
Eccentricity: 0.0013137
inclination: 74.0119°
perigee height: 757 km
apogee height: 776 km
right ascension of ascending node: 31.6248°
argument of perigee: 255.7008°
revolutions per day: 14.37429327
mean anomaly at epoch: 104.2687°
orbit number at epoch: 82739

The dashed part of the orbit path shows where the satellite is in the earth's shadow,  

DLR